KULM Airport (New Ulm Muni) Information

FAA: ULM - ICAO: KULM

KULM Airport Location

State Minnesota
County Brown
City New Ulm
KULM Airport is 2 miles west of New Ulm, MN.
Latitude 44-19-06.1920N
Longitude 094-30-05.9160W
Elevation 1,011ft

KULM Airport METARs

METAR KULM 121455Z AUTO 14013G21KT 10SM CLR 20/16 A3010 RMK AO2
Altimeter 30.10"
Temperature 20.0°C (68.0°F)
Wind 140° at 13KT with gusts to 21KT
Clouds Skies are clear.
Visibility 10.0mi
Time observed: 2022-08-12T14:55:00Z

KULM Airport Details

Status Operational
Activation September 1945
Ownership Public
Usage Public
Chart OMAHA
ATC on-site No
Beacon schedule sunset-sunrise
Beacon color clear green

KULM Airport Contacts

Owner CITY OF NEW ULM
Owner address 100 N BROADWAY, BOX 636, NEW ULM, MN 56073
Owner phone 507-359-8245
Manager JEFFERY A. TUMA
Manager address 11080 SHIELDSVILLE BLVD, MONTGOMERY, MN 56069
Manager phone 507-364-5628

KULM Airport (New Ulm Muni) Radio Frequencies

KULM (Airport) Radio Frequencies

UNICOM 122.8
Common traffic advisory frequency (CTAF) 122.8